When you browse on this site, cookies collect data to enhance your experience and personalize the content and advertising you see.
Visit our Privacy Policy to learn more. By continuing to use the site, you agree to this use of cookies and data.
  • In Belgium
  • List of Countries
  • For 7 days
  • Water Temperature
  • Satellite Maps
  • Weather Map
  • Weather Widgets
  • user-avatar
    Login

    Hourly Weather Polevaya

    Today, 21 February, Thursday

    Time Temperature Precipitation Wind Pressure Humidity
    00:00 0°C° 0.2 mm 3 mps 733 mmHg 92%
    01:00 -1°C° 0.2 mm 4 mps 733 mmHg 92%
    02:00 -1°C° 0.2 mm 4 mps 733 mmHg 92%
    03:00 -2°C° 0.7 mm 4 mps 733 mmHg 92%
    04:00 -3°C° 0.7 mm 4 mps 733 mmHg 92%
    05:00 -4°C° 0.7 mm 5 mps 733 mmHg 92%
    06:00 -5°C° 0.7 mm 5 mps 733 mmHg 91%
    07:00 -5°C° 0.7 mm 5 mps 733 mmHg 91%
    08:00 -5°C° 0.7 mm 4 mps 733 mmHg 91%
    09:00 -5°C° 0.5 mm 4 mps 734 mmHg 90%
    10:00 -5°C° 0.5 mm 4 mps 735 mmHg 90%
    11:00 -4°C° 0.5 mm 4 mps 735 mmHg 89%
    12:00 -6°C° 0.5 mm 5 mps 736 mmHg 88%
    13:00 -8°C° 0.5 mm 6 mps 737 mmHg 87%
    14:00 -9°C° 0.5 mm 7 mps 738 mmHg 85%
    15:00 -9°C° 0.3 mm 7 mps 739 mmHg 84%
    16:00 -11°C° 0.3 mm 7 mps 740 mmHg 83%
    17:00 -12°C° 0.3 mm 7 mps 741 mmHg 82%
    18:00 -12°C° 0.1 mm 7 mps 741 mmHg 81%
    19:00 -13°C° 0.1 mm 7 mps 742 mmHg 81%
    20:00 -12°C° 0.1 mm 6 mps 743 mmHg 80%
    21:00 -12°C° 0.1 mm 6 mps 743 mmHg 80%
    22:00 -14°C° 0.1 mm 6 mps 744 mmHg 80%
    23:00 -14°C° 0.1 mm 6 mps 744 mmHg 80%

    Tomorrow, 22 February, Friday

    Time Temperature Precipitation Wind Pressure Humidity
    00:00 -14°C° 0.1 mm 6 mps 745 mmHg 80%
    01:00 -14°C° 0.1 mm 6 mps 745 mmHg 80%
    02:00 -15°C° 0.1 mm 7 mps 746 mmHg 80%
    03:00 -15°C° 0.1 mm 7 mps 746 mmHg 80%
    04:00 -15°C° 0.1 mm 7 mps 746 mmHg 81%
    05:00 -15°C° 0.1 mm 7 mps 746 mmHg 81%
    06:00 -15°C° 0.1 mm 7 mps 747 mmHg 80%
    07:00 -15°C° 0.1 mm 7 mps 748 mmHg 80%
    08:00 -17°C° 0.1 mm 7 mps 748 mmHg 79%
    09:00 -15°C° 0.1 mm 7 mps 749 mmHg 78%
    10:00 -15°C° 0.1 mm 7 mps 749 mmHg 77%
    11:00 -15°C° 0.1 mm 7 mps 750 mmHg 76%
    12:00 -15°C° 0.1 mm 7 mps 750 mmHg 75%
    13:00 -15°C° 0.1 mm 7 mps 751 mmHg 74%
    14:00 -14°C° 0.1 mm 7 mps 752 mmHg 73%
    15:00 -14°C° 0 mm 7 mps 752 mmHg 73%
    16:00 -15°C° 0 mm 7 mps 753 mmHg 73%
    17:00 -15°C° 0 mm 6 mps 754 mmHg 73%
    18:00 -15°C° 0 mm 6 mps 754 mmHg 74%
    19:00 -15°C° 0 mm 6 mps 755 mmHg 75%
    20:00 -16°C° 0 mm 6 mps 756 mmHg 77%
    21:00 -16°C° 0 mm 6 mps 756 mmHg 79%
    22:00 -15°C° 0 mm 5 mps 757 mmHg 80%
    23:00 -17°C° 0 mm 5 mps 757 mmHg 82%

    Day after tomorrow, 23 February, Saturday

    Time Temperature Precipitation Wind Pressure Humidity
    00:00 -17°C° 0 mm 5 mps 758 mmHg 83%
    01:00 -17°C° 0 mm 5 mps 758 mmHg 84%
    02:00 -17°C° 0 mm 5 mps 759 mmHg 85%
    03:00 -17°C° 0 mm 4 mps 759 mmHg 86%
    04:00 -17°C° 0 mm 4 mps 759 mmHg 86%
    05:00 -18°C° 0 mm 4 mps 760 mmHg 87%
    06:00 -18°C° 0 mm 4 mps 760 mmHg 87%
    07:00 -18°C° 0 mm 4 mps 760 mmHg 87%
    08:00 -18°C° 0 mm 4 mps 761 mmHg 87%
    09:00 -16°C° 0 mm 3 mps 761 mmHg 84%
    10:00 -15°C° 0 mm 3 mps 761 mmHg 81%
    11:00 -14°C° 0 mm 3 mps 761 mmHg 78%
    12:00 -13°C° 0 mm 3 mps 761 mmHg 77%
    13:00 -12°C° 0 mm 3 mps 761 mmHg 76%
    14:00 -10°C° 0 mm 2 mps 761 mmHg 75%
    15:00 -10°C° 0 mm 2 mps 760 mmHg 79%
    16:00 -12°C° 0 mm 2 mps 760 mmHg 83%
    17:00 -10°C° 0 mm 1 mps 760 mmHg 87%
    18:00 -12°C° 0 mm 2 mps 760 mmHg 86%
    19:00 -10°C° 0 mm 2 mps 759 mmHg 85%
    20:00 -10°C° 0 mm 2 mps 759 mmHg 84%
    21:00 -12°C° 0.1 mm 3 mps 759 mmHg 87%
    22:00 -10°C° 0.1 mm 3 mps 758 mmHg 89%
    23:00 -10°C° 0.1 mm 3 mps 757 mmHg 91%

    24 February, Sunday

    Time Temperature Precipitation Wind Pressure Humidity
    00:00 -10°C° 0.1 mm 3 mps 757 mmHg 91%
    01:00 -10°C° 0.1 mm 4 mps 756 mmHg 91%
    02:00 -10°C° 0.1 mm 4 mps 755 mmHg 91%
    03:00 -10°C° 0.3 mm 4 mps 755 mmHg 92%
    04:00 -9°C° 0.3 mm 4 mps 754 mmHg 92%
    05:00 -9°C° 0.3 mm 4 mps 753 mmHg 92%
    06:00 -7°C° 0.6 mm 3 mps 753 mmHg 93%
    07:00 -7°C° 0.6 mm 3 mps 753 mmHg 94%
    08:00 -6°C° 0.6 mm 3 mps 752 mmHg 95%
    09:00 -4°C° 0.2 mm 2 mps 752 mmHg 94%
    10:00 -3°C° 0.2 mm 2 mps 753 mmHg 94%
    11:00 -1°C° 0.2 mm 2 mps 753 mmHg 93%
    12:00 -1°C° 0.1 mm 2 mps 753 mmHg 95%
    13:00 +1°C° 0.1 mm 2 mps 753 mmHg 97%
    14:00 +1°C° 0.1 mm 2 mps 753 mmHg 99%
    15:00 -1°C° 0 mm 2 mps 753 mmHg 98%
    16:00 -1°C° 0 mm 2 mps 752 mmHg 97%
    17:00 0°C° 0 mm 1 mps 752 mmHg 96%
    18:00 -1°C° 0 mm 1 mps 752 mmHg 96%
    19:00 -1°C° 0 mm 1 mps 752 mmHg 96%
    20:00 -2°C° 0 mm 1 mps 752 mmHg 97%
    21:00 -2°C° 0 mm 1 mps 751 mmHg 96%
    22:00 -1°C° 0 mm 1 mps 751 mmHg 96%
    23:00 -1°C° 0 mm 1 mps 751 mmHg 96%

    25 February, Monday

    Time Temperature Precipitation Wind Pressure Humidity
    00:00 -1°C° 0 mm 1 mps 750 mmHg 96%
    01:00 -1°C° 0 mm 1 mps 750 mmHg 96%
    02:00 -1°C° 0 mm 1 mps 749 mmHg 95%
    03:00 -1°C° 0 mm 1 mps 749 mmHg 95%
    04:00 -1°C° 0 mm 1 mps 748 mmHg 95%
    05:00 -3°C° 0 mm 2 mps 748 mmHg 95%
    06:00 -3°C° 0 mm 2 mps 747 mmHg 95%
    07:00 -3°C° 0 mm 2 mps 747 mmHg 95%
    08:00 -3°C° 0 mm 2 mps 747 mmHg 95%
    09:00 -3°C° 0 mm 2 mps 746 mmHg 94%
    10:00 -2°C° 0 mm 2 mps 746 mmHg 93%
    11:00 -1°C° 0 mm 2 mps 746 mmHg 93%
    12:00 -1°C° 0 mm 2 mps 746 mmHg 93%
    13:00 -1°C° 0 mm 2 mps 746 mmHg 93%
    14:00 -1°C° 0 mm 2 mps 745 mmHg 94%
    15:00 -1°C° 0.3 mm 2 mps 746 mmHg 94%
    16:00 -1°C° 0.3 mm 2 mps 746 mmHg 94%
    17:00 -1°C° 0.3 mm 2 mps 746 mmHg 94%
    18:00 -1°C° 0.2 mm 3 mps 746 mmHg 92%
    19:00 -3°C° 0.2 mm 4 mps 746 mmHg 89%
    20:00 -4°C° 0.2 mm 5 mps 746 mmHg 87%
    21:00 -3°C° 0 mm 4 mps 746 mmHg 87%
    22:00 -4°C° 0 mm 3 mps 746 mmHg 87%
    23:00 -4°C° 0 mm 3 mps 746 mmHg 88%

    26 February, Tuesday

    Time Temperature Precipitation Wind Pressure Humidity
    00:00 -4°C° 0.1 mm 3 mps 746 mmHg 89%
    01:00 -4°C° 0.1 mm 3 mps 746 mmHg 90%
    02:00 -2°C° 0.1 mm 3 mps 746 mmHg 92%
    03:00 -2°C° 0.2 mm 3 mps 746 mmHg 91%
    04:00 -2°C° 0.2 mm 3 mps 745 mmHg 91%
    05:00 -3°C° 0.2 mm 4 mps 745 mmHg 91%
    06:00 -3°C° 0.1 mm 4 mps 745 mmHg 90%
    07:00 -3°C° 0.1 mm 4 mps 745 mmHg 89%
    08:00 -3°C° 0.1 mm 4 mps 745 mmHg 89%
    09:00 -3°C° 0.1 mm 4 mps 745 mmHg 88%
    10:00 -2°C° 0.1 mm 4 mps 745 mmHg 88%
    11:00 -2°C° 0.1 mm 4 mps 745 mmHg 88%
    12:00 -2°C° 0.1 mm 4 mps 745 mmHg 87%
    13:00 -2°C° 0.1 mm 4 mps 744 mmHg 86%
    14:00 -2°C° 0.1 mm 4 mps 744 mmHg 85%
    15:00 -2°C° 0 mm 3 mps 743 mmHg 86%
    16:00 -2°C° 0 mm 3 mps 743 mmHg 87%
    17:00 -4°C° 0 mm 3 mps 743 mmHg 88%
    18:00 -4°C° 0.1 mm 3 mps 742 mmHg 90%
    19:00 -4°C° 0.1 mm 3 mps 741 mmHg 91%
    20:00 -5°C° 0.1 mm 3 mps 740 mmHg 93%
    21:00 -3°C° 0.3 mm 2 mps 740 mmHg 94%
    22:00 -3°C° 0.3 mm 2 mps 739 mmHg 95%
    23:00 -3°C° 0.3 mm 2 mps 738 mmHg 96%
    Show more